Simultaneous Nadir Overpasses (SNOs) Predictions

Prediction of SNOs between NOAA-20 and AQUA Satellite Orbit:

Table of predicted SNOs for the next 14.0 days since TLE Epoch: 12/3/2022
Index Date (NOAA-20) Time (NOAA-20) Lat,Lon (NOAA-20) SZA (NOAA-20 ) Date (AQUA) Time (AQUA) Lat,Lon (AQUA) SZA (AQUA ) Distance(km) Time Diff (sec)
1 12/05/2022 15:00:10 -78.91, 27.40 65.10 12/05/2022 15:01:24 -78.87, 27.56 65.18 5.74 74
2 12/05/2022 15:50:33 79.64,-159.72 113.79 12/05/2022 15:50:29 79.64,-159.76 113.80 0.97 4
3 12/08/2022 06:26:05 79.34, -21.02 114.61 12/08/2022 06:27:13 79.35, -20.94 114.54 1.79 68
4 12/08/2022 07:16:43 -79.59, 148.33 65.79 12/08/2022 07:16:33 -79.60, 148.46 65.80 2.78 10
5 12/10/2022 21:52:08 -79.49, -71.36 65.33 12/10/2022 21:53:11 -79.48, -71.50 65.35 2.96 63
6 12/10/2022 22:42:46 79.69, 97.69 114.35 12/10/2022 22:42:30 79.70, 97.69 114.36 0.18 16
7 12/13/2022 13:18:14 79.53,-122.60 114.87 12/13/2022 13:19:10 79.52,-122.71 114.85 2.28 56
8 12/13/2022 14:08:53 -79.74, 46.54 65.48 12/13/2022 14:08:31 -79.73, 46.50 65.45 0.77 22
9 12/16/2022 04:44:24 -79.47,-174.59 64.85 12/16/2022 04:45:13 -79.47,-174.54 64.89 1.04 49



Historial Predications of SNOs between NOAA-20 and AQUA
